• In Portugal
  • List of Countries
  • For 7 days
  • Water Temperature
  • Satellite Maps
  • Weather Map
  • Weather Widgets
  • user-avatar
    Login

    Hourly Weather Berat

    Today, 19 June, Tuesday

    Time Temperature Precipitation Wind Pressure Humidity
    00:00 +20°C° 0 mm 2 mps 741 mmHg 80%
    01:00 +20°C° 0 mm 2 mps 741 mmHg 80%
    02:00 +20°C° 0 mm 2 mps 742 mmHg 80%
    03:00 +19°C° 0 mm 2 mps 742 mmHg 81%
    04:00 +19°C° 0 mm 2 mps 742 mmHg 81%
    05:00 +21°C° 0 mm 2 mps 742 mmHg 77%
    06:00 +23°C° 0 mm 2 mps 742 mmHg 74%
    07:00 +25°C° 0 mm 2 mps 742 mmHg 70%
    08:00 +26°C° 0.1 mm 2 mps 743 mmHg 65%
    09:00 +28°C° 0.1 mm 2 mps 743 mmHg 60%
    10:00 +29°C° 0.1 mm 2 mps 743 mmHg 54%
    11:00 +29°C° 0.4 mm 2 mps 743 mmHg 54%
    12:00 +30°C° 0.4 mm 2 mps 743 mmHg 53%
    13:00 +30°C° 0.4 mm 2 mps 743 mmHg 52%
    14:00 +30°C° 0.7 mm 2 mps 743 mmHg 54%
    15:00 +29°C° 0.7 mm 2 mps 743 mmHg 57%
    16:00 +29°C° 0.7 mm 2 mps 743 mmHg 59%
    17:00 +27°C° 1 mm 2 mps 743 mmHg 65%
    18:00 +26°C° 1 mm 2 mps 743 mmHg 71%
    19:00 +25°C° 1 mm 1 mps 743 mmHg 77%
    20:00 +24°C° 0.2 mm 1 mps 744 mmHg 78%
    21:00 +23°C° 0.2 mm 1 mps 744 mmHg 79%
    22:00 +23°C° 0.2 mm 1 mps 745 mmHg 79%
    23:00 +22°C° 0 mm 1 mps 745 mmHg 79%

    Tomorrow, 20 June, Wednesday

    Time Temperature Precipitation Wind Pressure Humidity
    00:00 +22°C° 0 mm 1 mps 745 mmHg 79%
    01:00 +20°C° 0 mm 2 mps 745 mmHg 79%
    02:00 +20°C° 0.1 mm 2 mps 745 mmHg 79%
    03:00 +20°C° 0.1 mm 2 mps 745 mmHg 78%
    04:00 +20°C° 0.1 mm 2 mps 745 mmHg 78%
    05:00 +21°C° 0 mm 2 mps 745 mmHg 75%
    06:00 +24°C° 0 mm 2 mps 745 mmHg 71%
    07:00 +26°C° 0 mm 2 mps 745 mmHg 68%
    08:00 +27°C° 0 mm 2 mps 746 mmHg 61%
    09:00 +29°C° 0 mm 2 mps 746 mmHg 53%
    10:00 +30°C° 0 mm 1 mps 746 mmHg 45%
    11:00 +31°C° 0.1 mm 2 mps 746 mmHg 45%
    12:00 +31°C° 0.1 mm 2 mps 746 mmHg 44%
    13:00 +32°C° 0.1 mm 2 mps 745 mmHg 43%
    14:00 +31°C° 0.2 mm 2 mps 745 mmHg 47%
    15:00 +30°C° 0.2 mm 2 mps 745 mmHg 50%
    16:00 +29°C° 0.2 mm 2 mps 745 mmHg 54%
    17:00 +28°C° 0.2 mm 2 mps 745 mmHg 59%
    18:00 +27°C° 0.2 mm 2 mps 745 mmHg 64%
    19:00 +25°C° 0.2 mm 1 mps 745 mmHg 69%
    20:00 +25°C° 0.1 mm 1 mps 746 mmHg 71%
    21:00 +24°C° 0.1 mm 1 mps 746 mmHg 72%
    22:00 +23°C° 0.1 mm 1 mps 746 mmHg 74%
    23:00 +23°C° 0.1 mm 1 mps 746 mmHg 73%

    Day after tomorrow, 21 June, Thursday

    Time Temperature Precipitation Wind Pressure Humidity
    00:00 +22°C° 0.1 mm 1 mps 746 mmHg 73%
    01:00 +22°C° 0.1 mm 1 mps 746 mmHg 73%
    02:00 +21°C° 0 mm 2 mps 745 mmHg 72%
    03:00 +20°C° 0 mm 2 mps 745 mmHg 71%
    04:00 +20°C° 0 mm 2 mps 745 mmHg 70%
    05:00 +23°C° 0 mm 2 mps 745 mmHg 67%
    06:00 +25°C° 0 mm 1 mps 745 mmHg 63%
    07:00 +26°C° 0 mm 1 mps 745 mmHg 60%
    08:00 +28°C° 0.1 mm 1 mps 745 mmHg 55%
    09:00 +29°C° 0.1 mm 1 mps 745 mmHg 50%
    10:00 +31°C° 0.1 mm 1 mps 745 mmHg 45%
    11:00 +31°C° 0 mm 1 mps 745 mmHg 45%
    12:00 +31°C° 0 mm 2 mps 744 mmHg 45%
    13:00 +31°C° 0 mm 2 mps 744 mmHg 45%
    14:00 +31°C° 0.6 mm 3 mps 744 mmHg 49%
    15:00 +30°C° 0.6 mm 3 mps 744 mmHg 53%
    16:00 +29°C° 0.6 mm 3 mps 743 mmHg 57%
    17:00 +28°C° 0.6 mm 2 mps 743 mmHg 63%
    18:00 +26°C° 0.6 mm 1 mps 743 mmHg 70%
    19:00 +25°C° 0.6 mm 1 mps 743 mmHg 76%
    20:00 +24°C° 0 mm 1 mps 744 mmHg 78%
    21:00 +23°C° 0 mm 1 mps 744 mmHg 79%
    22:00 +23°C° 0 mm 1 mps 744 mmHg 80%
    23:00 +22°C° 0 mm 1 mps 744 mmHg 80%

    22 June, Friday

    Time Temperature Precipitation Wind Pressure Humidity
    00:00 +22°C° 0 mm 1 mps 743 mmHg 80%
    01:00 +22°C° 0 mm 1 mps 743 mmHg 81%
    02:00 +21°C° 0 mm 1 mps 743 mmHg 81%
    03:00 +21°C° 0 mm 1 mps 743 mmHg 81%
    04:00 +21°C° 0 mm 1 mps 743 mmHg 81%
    05:00 +22°C° 0 mm 1 mps 743 mmHg 76%
    06:00 +24°C° 0 mm 1 mps 743 mmHg 72%
    07:00 +26°C° 0 mm 1 mps 743 mmHg 67%
    08:00 +27°C° 0 mm 2 mps 743 mmHg 63%
    09:00 +28°C° 0 mm 2 mps 743 mmHg 59%
    10:00 +29°C° 0 mm 2 mps 743 mmHg 54%
    11:00 +30°C° 0 mm 3 mps 742 mmHg 54%
    12:00 +30°C° 0 mm 3 mps 742 mmHg 53%
    13:00 +32°C° 0 mm 4 mps 742 mmHg 52%
    14:00 +30°C° 0.1 mm 4 mps 742 mmHg 54%
    15:00 +30°C° 0.1 mm 4 mps 741 mmHg 55%
    16:00 +29°C° 0.1 mm 4 mps 741 mmHg 57%
    17:00 +28°C° 0 mm 3 mps 741 mmHg 63%
    18:00 +26°C° 0 mm 2 mps 741 mmHg 68%
    19:00 +25°C° 0 mm 2 mps 741 mmHg 74%
    20:00 +24°C° 0 mm 1 mps 741 mmHg 76%
    21:00 +23°C° 0 mm 1 mps 742 mmHg 78%
    22:00 +22°C° 0 mm 1 mps 742 mmHg 80%
    23:00 +22°C° 0 mm 1 mps 742 mmHg 81%

    23 June, Saturday

    Time Temperature Precipitation Wind Pressure Humidity
    00:00 +22°C° 0 mm 1 mps 742 mmHg 81%
    01:00 +21°C° 0 mm 1 mps 742 mmHg 82%
    02:00 +21°C° 0 mm 1 mps 742 mmHg 82%
    03:00 +21°C° 0 mm 1 mps 742 mmHg 82%
    04:00 +20°C° 0 mm 2 mps 742 mmHg 82%
    05:00 +21°C° 0 mm 2 mps 742 mmHg 78%
    06:00 +24°C° 0 mm 1 mps 742 mmHg 74%
    07:00 +25°C° 0 mm 1 mps 742 mmHg 69%
    08:00 +27°C° 0 mm 2 mps 743 mmHg 64%
    09:00 +28°C° 0 mm 2 mps 743 mmHg 59%
    10:00 +29°C° 0 mm 2 mps 743 mmHg 55%
    11:00 +30°C° 0.3 mm 2 mps 743 mmHg 55%
    12:00 +30°C° 0.3 mm 3 mps 742 mmHg 56%
    13:00 +30°C° 0.3 mm 3 mps 742 mmHg 57%
    14:00 +29°C° 0.8 mm 3 mps 742 mmHg 59%
    15:00 +29°C° 0.8 mm 3 mps 742 mmHg 62%
    16:00 +28°C° 0.8 mm 2 mps 742 mmHg 64%
    17:00 +27°C° 0.5 mm 2 mps 742 mmHg 68%
    18:00 +26°C° 0.5 mm 2 mps 742 mmHg 72%
    19:00 +25°C° 0.5 mm 1 mps 743 mmHg 76%
    20:00 +24°C° 0 mm 1 mps 743 mmHg 78%
    21:00 +23°C° 0 mm 1 mps 743 mmHg 79%
    22:00 +22°C° 0 mm 1 mps 744 mmHg 80%
    23:00 +21°C° 0.1 mm 2 mps 744 mmHg 81%

    24 June, Sunday

    Time Temperature Precipitation Wind Pressure Humidity
    00:00 +20°C° 0.1 mm 2 mps 743 mmHg 81%
    01:00 +20°C° 0.1 mm 2 mps 743 mmHg 82%
    02:00 +20°C° 0.3 mm 2 mps 743 mmHg 83%
    03:00 +19°C° 0.3 mm 2 mps 743 mmHg 83%
    04:00 +19°C° 0.3 mm 2 mps 743 mmHg 83%
    05:00 +20°C° 0.2 mm 2 mps 743 mmHg 80%
    06:00 +21°C° 0.2 mm 2 mps 744 mmHg 76%
    07:00 +24°C° 0.2 mm 2 mps 744 mmHg 72%
    08:00 +25°C° 0.6 mm 2 mps 744 mmHg 69%
    09:00 +26°C° 0.6 mm 2 mps 744 mmHg 66%
    10:00 +27°C° 0.6 mm 2 mps 744 mmHg 62%
    11:00 +28°C° 0.9 mm 2 mps 744 mmHg 62%
    12:00 +28°C° 0.9 mm 2 mps 744 mmHg 61%
    13:00 +29°C° 0.9 mm 2 mps 743 mmHg 60%
    14:00 +28°C° 0.9 mm 2 mps 743 mmHg 61%
    15:00 +28°C° 0.9 mm 2 mps 743 mmHg 63%
    16:00 +28°C° 0.9 mm 2 mps 743 mmHg 64%
    17:00 +26°C° 0.7 mm 2 mps 743 mmHg 69%
    18:00 +25°C° 0.7 mm 2 mps 743 mmHg 74%
    19:00 +24°C° 0.7 mm 2 mps 744 mmHg 79%
    20:00 +23°C° 0.1 mm 2 mps 744 mmHg 81%
    21:00 +21°C° 0.1 mm 2 mps 744 mmHg 82%
    22:00 +21°C° 0.1 mm 2 mps 744 mmHg 84%
    23:00 +20°C° 0 mm 2 mps 744 mmHg 85%
    Show more